www.pogodaiklimat.ru

Погода и климат >> Архив погоды >> Пакистан >> Ханпур


ПОГОДА в Ханпуре

  • Прогноз погоды в Ханпуре
  • Монитор погоды в Ханпуре

АРХИВ ПОГОДЫ в Ханпуре

Время (UTC), дата Ветер
(напр.,м/с)
 
Видим.   Явления Облачность Т
(С)
Тd
(С)
f
(%)
Тe
(С)
Тes
(С)
Комфортность P
(гПа)
Po
(гПа)
Тmin
(С)
Tmax
(С)
R
(мм)
R24
(мм)
S
(см)
18 16.08 штиль 0 4000 м зарница 9/5 1050 м
[Cb cap Ac trans]
+31.0 +25.4 72 +45 +45 опасность
перегрева
997.8 988.0
21 16.08 штиль 0 4000 м дым {гроза} 9/0
[Ac trans]
+29.0 +25.5 81 +43 +43 опасность
перегрева
997.1 1000.0
00 17.08 штиль 0 4000 м дым 6/0
[Ac trans]
+28.0 +25.2 85 +41 +41 опасность
перегрева
997.7 987.7
03 17.08 штиль 0 4000 м дым 5/0
[Ac trans]
+28.0 +23.7 77 +38 +43 очень
душно
998.7 988.7 +26.5
06 17.08 штиль 0 4000 м дым {метель} 6/0
[Ac trans]
+34.0 +25.7 62 +49 +65 опасность
перегрева
999.5 989.8
09 17.08 СВ 1 4000 м дым 8/8 1200 м
[Sc]
+36.0 +26.4 58 +53 +57 опасность
перегрева
998.0 1000.0
12 17.08 штиль 0 4000 м дым 8/8 1200 м
[Sc]
+36.0 +27.9 63 +56 +57 опасность
перегрева
996.5 986.8 +37.1
15 17.08 штиль 0 4000 м дым 5/5 300 м
[Sc]
+34.0 +25.8 62 +49 +49 опасность
перегрева
997.7 1000.0
18 17.08 штиль 0 4000 м дым 5/5 1200 м
[Sc]
+31.0 +26.1 75 +46 +46 опасность
перегрева
998.8 989.0
21 17.08 штиль 0 4000 м дым 5/5 1200 м
[Sc]
+29.0 +25.5 81 +43 +43 опасность
перегрева
997.8 987.9
00 18.08 штиль 0 4000 м дым 3/3 1200 м
[Sc]
+28.0 +25.2 85 +41 +41 опасность
перегрева
998.3 988.3
03 18.08 штиль 0 4000 м дым ясно +30.0 +25.8 78 +45 +51 опасность
перегрева
1001.0 991.2 +27.5
06 18.08 ЮЗ 3 4000 м дым ясно +35.0 +26.8 63 +53 +69 опасность
перегрева
1002.2 992.5
09 18.08 ЮЗ 1 4000 м дым ясно +37.0 +26.0 53 +52 +72 опасность
перегрева
999.6 1000.0
12 18.08 штиль 0 4000 м дым ясно +38.0 +26.4 52 +54 +59 опасность
перегрева
998.1 988.5 +38.5
15 18.08 СВ 2 4000 м дым 6/3 1200 м
[Sc Ac trans]
+34.0 +25.7 62 +49 +49 опасность
перегрева
999.0 1000.0
18 18.08 СВ 1 4000 м дым 5/5 1200 м
[Sc]
+29.0 +22.4 68 +38 +38 очень
душно
1004.2 994.4
21 18.08 штиль 0 4000 м дым 5/5 1200 м
[Sc]
+27.0 +22.6 77 +36 +36 очень
душно
1003.3 1000.0
00 19.08 штиль 0 4000 м дым 4/4 1200 м
[Sc]
+28.0 +24.4 81 +39 +39 очень
душно
1004.4 994.4
03 19.08 штиль 0 4000 м дым ясно +30.0 +25.8 78 +45 +51 опасность
перегрева
1005.3 995.3 +26.5
06 19.08 ЮЗ 2 4000 м дым ясно +34.0 +26.5 65 +51 +71 опасность
перегрева
1004.6 994.9
09 19.08 ЮЗ 1 4000 м дым ясно +37.0 +26.0 53 +52 +72 опасность
перегрева
1003.1 1000.0
12 19.08 штиль 0 4000 м дым ясно +38.0 +25.6 49 +52 +56 опасность
перегрева
1001.3 991.7 +38.5
15 19.08 штиль 0 4000 м дым ясно +34.0 +24.9 59 +47 +47 опасность
перегрева
1002.2 992.4
18 19.08 штиль 0 4000 м дым ясно +32.0 +25.0 67 +46 +46 опасность
перегрева
1003.8 994.0
21 19.08 штиль 0 4000 м дым ясно +29.0 +24.0 74 +40 +40 очень
душно
1002.7 1000.0
00 20.08 штиль 0 4000 м дым ясно +29.0 +25.5 81 +43 +43 опасность
перегрева
1002.8 993.0
03 20.08 штиль 0 4000 м дым ясно +30.0 +25.8 78 +45 +51 опасность
перегрева
1005.4 995.4 +27.5
06 20.08 ЮЗ 2 4000 м дым ясно +35.0 +26.1 60 +51 +71 опасность
перегрева
1004.7 995.0
09 20.08 ЮЗ 1 4000 м дым ясно +37.5 +25.8 51 +52 +72 опасность
перегрева
1003.2 1000.0
12 20.08 штиль 0 4000 м дым ясно +38.0 +25.6 49 +52 +56 опасность
перегрева
1001.4 991.8 +39.5
15 20.08 штиль 0 4000 м дым ясно +34.0 +24.9 59 +47 +47 опасность
перегрева
1002.4 992.6
18 20.08 штиль 0 4000 м дым ясно +31.0 +25.4 72 +45 +45 опасность
перегрева
1003.5 993.7
21 20.08 штиль 0 4000 м дым ясно +30.0 +25.1 75 +43 +43 опасность
перегрева
1002.0 1000.0
00 21.08 ЮЗ 2 4000 м дым ясно +28.0 +24.4 81 +39 +39 очень
душно
1001.0 991.0
03 21.08 ЮЗ 2 4000 м дым ясно +29.0 +24.8 78 +41 +47 опасность
перегрева
1002.2 992.4 +27.5
06 21.08 ЮЗ 2 4000 м дым ясно +35.0 +24.5 55 +48 +66 опасность
перегрева
1002.7 993.0
09 21.08 ЮЗ 3 4000 м дым ясно +38.0 +24.0 45 +49 +64 опасность
перегрева
1000.6 1000.0
12 21.08 ЮЗ 2 4000 м дым ясно +38.0 +25.6 49 +52 +55 опасность
перегрева
998.0 988.4 +39.5
15 21.08 штиль 0 4000 м дым ясно +34.0 +25.7 62 +49 +49 опасность
перегрева
998.8 1000.0
18 21.08 штиль 0 4000 м дым ясно +33.0 +25.3 64 +47 +47 опасность
перегрева
999.5 989.7
21 21.08 штиль 0 4000 м дым ясно +31.0 +24.6 69 +44 +44 опасность
перегрева
998.1 1000.0
00 22.08 ЮЗ 2 4000 м дым ясно +28.0 +24.4 81 +39 +39 очень
душно
1000.2 990.2
03 22.08 ЮЗ 2 4000 м дым ясно +29.0 +24.8 78 +41 +46 опасность
перегрева
1002.1 992.3 +27.5
06 22.08 ЮЗ 2 4000 м дым ясно +33.0 +23.8 59 +45 +63 опасность
перегрева
1002.5 992.7
09 22.08 ЮЗ 2 4000 м дым ясно +38.0 +24.8 47 +51 +69 опасность
перегрева
1000.6 1000.0
12 22.08 ЮЗ 1 4000 м дым ясно +38.0 +25.6 49 +52 +56 опасность
перегрева
999.0 989.4 +39.5
15 22.08 штиль 0 4000 м дым ясно +34.0 +25.7 62 +49 +49 опасность
перегрева
999.5 1000.0
18 22.08 штиль 0 4000 м дым ясно +31.0 +26.1 75 +46 +46 опасность
перегрева
1000.3 990.5
21 22.08 штиль 0 4000 м дым ясно +28.5 +24.2 78 +40 +40 очень
душно
1000.5 1000.0
00 23.08 штиль 0 4000 м дым ясно +27.5 +23.9 81 +38 +38 очень
душно
1000.6 990.6
03 23.08 штиль 0 4000 м дым ясно +28.5 +25.0 81 +41 +47 опасность
перегрева
1001.8 991.8 +27.0
06 23.08 штиль 0 4000 м дым ясно +32.0 +25.0 67 +46 +70 опасность
перегрева
1003.8 994.0
09 23.08 ЮЗ 1 4000 м мгла ясно +37.5 +24.2 47 +49 +70 опасность
перегрева
1001.8 1000.0
12 23.08 ЮЗ 1 4000 м мгла ясно +38.0 +24.0 45 +49 +53 опасность
перегрева
1000.7 991.1 +38.5

 

Местоположение метеостанции Ханпур (Пакистан): широта 28.65 долгота 70.68 высота над уровнем моря 88 м.

В архиве по умолчанию представлена погода в Ханпуре за последнюю неделю. Архивные данные за месяц целиком и за предыдущие месяцы, начиная с января 2011 года, Вы можете получить, выбрав интересующий диапазон дат из раскрывающегося списка и нажав кнопку "Ввод!".


*Определитесь, кто Вы:
робот инопланетянин человек

Внимание! Время в таблицах - всемирное. Для получения местного времени необходимо прибавить поправку, которая равна 5 ч.

Смотрите также архив погоды в соседних городах и на ближайших метеорологических станциях:

Погода в Рахим Яр Хан (Пакистан) (43 км)
Погода в Бахавалпуре (Пакистан) (136 км)
Погода а Бахавалпур аэропорту (Пакистан) (136 км)
Погода в Дера Гази Хан (Пакистан) (156 км)
Погода в Бархане (Пакистан) (166 км)
Погода в Мултане (Пакистан) (187 км)
Погода в Джайсалмере (Раджастхан, Индия) (196 км)
Погода в Кот Адду (Пакистан) (202 км)
Погода в Рохри (Пакистан) (206 км)
Погода в Суккуре (Пакистан) (214 км)

Пояснения к столбцам:

Ветер - указаны скорость ветра в м/с - средняя за 10 мин, порывы в срок и между сроками (в фигурных скобках) и направление, откуда дует ветер: С - северный, СВ - северо-восточный, В - восточный, ЮВ - юго-восточный, Ю - южный, ЮЗ - юго-западный, З - западный, СЗ - северо-западный.
Видимость - горизонтальная дальность видимости в метрах или километрах. При видимости от 1 до 10 км при отсутствии осадков обычно наблюдается дымка, при ухудшении видимости до 1 км и менее - туман. В сухую погоду видимость может ухудшаться дымом, пылью или мглою.
Явления - указаны атмосферные явления, наблюдавшиеся в срок или в последний час перед сроком; фигурными скобками обозначены явления, наблюдавшиеся между сроками (за 1-3 часа до срока); квадратными скобками обозначены град или гололедные отложения с указанием их диаметра в мм.
Облачность - указаны через наклонную черту общая и нижняя облачность в баллах и высота нижней границы облаков в метрах; квадратными скобками обозначены формы облаков: Ci - перистые, Cs - перисто-слоистые, Cc - перисто-кучевые, Ac - высококучевые, As - высокослоистые, Sc - слоисто-кучевые, Ns - слоисто-дождевые, Cu - кучевые, Cb - кучево-дождевые. Подробнее классификацию облаков см. в Атласе облаков (PDF).
T - Температура воздуха - температура, измеренная на высоте 2 м над землей.
Td - Температура точки росы - температура, при понижении до которой содержащийся в воздухе водяной пар достигнет насыщения.
f - Относительная влажность воздуха - влажноcть воздуха, измеренная на высоте 2 м над землей.
Te - Эффективная температура - температура, которую ощущает одетый по сезону человек в тени. Характеристика душности погоды. При расчете учитывается влияние влажности воздуха и скорости ветра на теплоощущения человека.
Tes - Эффективная температура на солнце - температура, которую ощущает человек, с поправкой на солнечный нагрев. Характеристика знойности погоды. Зависит от высоты солнца над горизонтом, облачности и скорости ветра. Ночью, в пасмурную погоду, а также при ветре 12 м/с и более поправка равна нулю.
P - Атмосферное давление - приведенное к уровню моря атмосферное давление.
Po - Атмосферное давление - измеренное на уровне метеостанции атмосферное давление.
Tmin - Минимальная температура - минимум температуры воздуха на высоте 2 м над землей.
Tmax - Максимальная температура - максимум температуры воздуха на высоте 2 м над землей.
R - Количество осадков - Количество выпавших осадков за период времени, мм. При наведении курсора мыши на число - период времени, за который выпало указанное количество осадков.
R24 - Количество осадков - Количество выпавших осадков за 24 часа, мм.
S - Снежный покров - Высота снежного покрова, см. При наведении курсора мыши на число - состояние снежного покрова и степень покрытия местности в баллах.